Location: Poughquag
(41.6090°N, 73.6820°W)
Time: 06:02:21
(UTC-04:00)

Vanguard 2 - Visible Passes

Search period start: 13 May 2021 00:00
Search period end: 23 May 2021 00:00
Orbit: 552 x 2938 km, 32.9° (Epoch: 12 May)

Date Brightness Start Highest point End Pass type
(mag) Time Alt. Az. Time Alt. Az. Time Alt. Az.
13 May 10.5 03:57:30 10° SSE 04:01:56 15° SE 04:07:23 10° ESE visible
14 May 10.3 04:13:08 10° S 04:18:53 20° SE 04:26:42 10° E visible
15 May 10.1 04:29:31 10° SSW 04:35:57 27° SE 04:45:19 10° E visible
16 May 10.0 04:46:17 10° SSW 04:53:09 33° SSE 05:03:37 10° E visible
17 May 10.2 03:00:57 10° SSE 03:03:16 12° SE 03:06:01 10° ESE visible
18 May 9.9 03:17:39 14° SSE 03:20:16 17° SE 03:25:41 10° ESE visible
19 May 9.6 03:34:18 17° S 03:37:24 23° SE 03:44:20 10° E visible
20 May 9.4 03:50:58 18° SSW 03:54:37 29° SSE 04:02:35 10° E visible
21 May 9.3 04:07:37 17° SSW 04:11:57 35° SSE 04:20:40 10° E visible
22 May 9.9 02:22:53 14° SE 02:22:53 14° SE 02:25:20 10° ESE visible
22 May 9.1 04:24:17 14° SW 04:29:23 40° SSE 04:38:37 10° E visible
